This demonstration page uses our WeatherBlox Daily Observations layout. Learn more.

Left ArrowRight Arrow

Hourly Observations for October 9, 2021

Temp ( °F °C ) Dew Point ( °F °C ) Humidity (%) Winds ( mph kmh ) Pressure ( in mb ) Visibility ( mi km ) Precip ( " mm )
12:15 am 00:15 Clear 59 14.8 53 11.8 82 82 SE 7 11 29.81 1010 10 16 0.00 0.00
12:35 am 00:35 Clear 61 16.1 55 12.6 80 80 SE 5 7 29.81 1009 10 16 0.00 0.00
12:55 am 00:55 Clear 59 15 54 12.2 83 83 ESE 6 9 29.80 1009 10 16 0.00 0.00
1:15 am 01:15 Clear 60 15.7 55 12.9 84 84 ESE 6 9 29.78 1009 10 16 0.00 0.00
1:35 am 01:35 Clear 59 15 55 12.7 86 86 ESE 8 13 29.78 1008 10 16 0.00 0.00
1:55 am 01:55 Clear 59 14.8 54 12.3 85 85 ESE 7 11 29.77 1008 10 16 0.00 0.00
2:15 am 02:15 Clear 59 14.9 55 12.8 87 87 SE 7 11 29.77 1008 10 16 0.00 0.00
2:35 am 02:35 Clear 58 14.7 55 12.5 87 87 SE 5 7 29.77 1008 10 16 0.00 0.00
2:55 am 02:55 Clear 58 14.2 55 12.5 90 90 ESE 5 7 29.78 1008 10 16 0.00 0.00
3:15 am 03:15 Clear 57 13.7 53 11.9 89 89 SE 7 11 29.76 1008 10 16 0.00 0.00
3:35 am 03:35 Clear 57 14.1 54 12.4 90 90 ESE 8 13 29.75 1007 10 16 0.00 0.00
3:55 am 03:55 Clear 57 14 55 12.5 91 91 ESE 7 11 29.73 1007 10 16 0.00 0.00
4:15 am 04:15 Clear 59 15 56 13.3 90 90 ESE 8 13 29.72 1006 10 16 0.00 0.00
4:35 am 04:35 Clear 60 15.7 56 13.6 87 87 SE 8 13 29.70 1006 10 16 0.00 0.00
4:55 am 04:55 Clear 60 15.6 56 13.6 88 88 ESE 8 13 29.68 1005 10 16 0.00 0.00
5:15 am 05:15 Clear 62 16.5 57 14 85 85 SE 9 15 29.67 1005 10 16 0.00 0.00
5:35 am 05:35 Clear 61 16.3 57 13.8 85 85 SE 3 6 29.67 1005 10 16 0.00 0.00
5:55 am 05:55 Clear 60 15.5 56 13.6 89 89 Calm 29.68 1005 10 16 0.00 0.00
6:15 am 06:15 Clear 60 15.4 56 13.4 88 88 ESE 3 6 29.67 1005 10 16 0.00 0.00
6:35 am 06:35 Clear 61 16 58 14.4 90 90 ESE 8 13 29.64 1004 10 16 0.00 0.00
6:55 am 06:55 Clear 62 16.5 58 14.5 88 88 ESE 8 13 29.62 1003 10 16 0.00 0.00
7:15 am 07:15 Clear 62 16.7 58 14.5 87 87 SE 7 11 29.63 1003 10 16 0.00 0.00
7:35 am 07:35 Clear 62 16.5 58 14.5 88 88 SE 8 13 29.62 1003 10 16 0.00 0.00
7:55 am 07:55 Sunny 62 16.8 58 14.6 87 87 SSE 3 6 29.61 1003 10 16 0.00 0.00
8:15 am 08:15 Sunny 62 16.9 59 14.8 88 88 Calm 29.60 1002 10 16 0.00 0.00
8:35 am 08:35 Sunny 62 16.7 58 14.6 88 88 Calm 29.62 1003 10 16 0.00 0.00
8:55 am 08:55 Sunny 63 17.1 59 15 88 88 SSE 3 6 29.60 1002 10 16 0.00 0.00
9:15 am 09:15 Sunny 63 17.1 59 15 88 88 S 3 6 29.61 1003 10 16 0.00 0.00
9:35 am 09:35 Sunny 64 17.6 59 15 85 85 S 7 11 29.59 1002 10 16 0.00 0.00
9:55 am 09:55 Sunny 64 17.7 59 15.1 85 85 S 8 13 29.59 1002 10 16 0.00 0.00
10:15 am 10:15 Sunny 64 18 59 15.1 83 83 S 3 6 29.58 1002 10 16 0.00 0.00
10:35 am 10:35 Sunny 65 18.5 60 15.3 82 82 SW 5 7 29.57 1001 10 16 0.00 0.00
10:55 am 10:55 Sunny 67 19.5 60 15.5 78 78 SW 6 9 29.56 1001 10 16 0.00 0.00
11:15 am 11:15 Sunny 69 20.4 59 15.1 72 72 SW 10 17 29.54 1001 10 16 0.00 0.00
11:35 am 11:35 Sunny 70 21.2 58 14.4 65 65 SW 8 13 29.53 1000 10 16 0.00 0.00
11:55 am 11:55 Sunny 71 21.5 57 14 62 62 WSW 6 9 29.53 1000 10 16 0.00 0.00
12:15 pm 12:15 Sunny 72 22 57 13.9 60 60 SW 8 13 29.53 1000 10 16 0.00 0.00
12:35 pm 12:35 Sunny 72 22 56 13.5 59 59 WSW 9 15 29.53 1000 10 16 0.00 0.00
12:55 pm 12:55 Sunny 73 22.5 55 12.7 54 54 SW 8 13 29.52 1000 10 16 0.00 0.00
1:15 pm 13:15 Sunny 74 23.2 53 11.9 49 49 WSW 8 13 29.51 999 10 16 0.00 0.00
1:35 pm 13:35 Sunny 74 23.5 52 11.3 46 46 WSW 12 19 29.50 999 10 16 0.00 0.00
1:55 pm 13:55 Sunny 76 24.2 53 11.6 45 45 WSW 9 15 29.48 998 10 16 0.00 0.00
2:15 pm 14:15 Sunny 76 24.6 51 10.8 42 42 WSW 10 17 29.48 998 10 16 0.00 0.00
2:35 pm 14:35 Sunny 77 24.9 50 10 39 39 W 16 26 29.47 998 10 16 0.00 0.00
2:55 pm 14:55 Sunny 78 25.5 48 8.8 35 35 W 12 19 29.46 998 10 16 0.00 0.00
3:15 pm 15:15 Sunny 78 25.3 48 8.9 35 35 WNW 14 22 29.48 998 10 16 0.00 0.00
3:35 pm 15:35 Sunny 76 24.5 52 11 43 43 W 9 15 29.48 998 10 16 0.00 0.00
3:55 pm 15:55 Sunny 77 25 53 11.6 43 43 W 12 19 29.48 998 10 16 0.00 0.00
4:15 pm 16:15 Sunny 77 25 54 12 44 44 WNW 9 15 29.48 998 10 16 0.00 0.00
4:35 pm 16:35 Sunny 77 25.1 54 12.4 45 45 W 7 11 29.49 999 10 16 0.00 0.00
4:55 pm 16:55 Sunny 78 25.4 55 12.6 45 45 W 6 9 29.49 998 10 16 0.00 0.00
5:15 pm 17:15 Sunny 77 25.1 55 12.9 47 47 W 5 7 29.49 999 10 16 0.00 0.00
5:35 pm 17:35 Sunny 77 25 56 13.2 48 48 WSW 5 7 29.50 999 10 16 0.00 0.00
5:55 pm 17:55 Sunny 76 24.5 56 13.6 51 51 WSW 3 6 29.49 999 10 16 0.00 0.00
6:15 pm 18:15 Sunny 75 23.9 56 13.5 52 52 SSW 3 6 29.51 999 10 16 0.00 0.00
6:35 pm 18:35 Sunny 73 23 56 13.6 56 56 SW 3 6 29.51 999 10 16 0.00 0.00
6:55 pm 18:55 Sunny 72 22.1 56 13.5 58 58 Calm 29.53 1000 10 16 0.00 0.00
7:15 pm 19:15 Clear 72 22.1 56 13.2 57 57 SW 5 7 29.53 1000 10 16 0.00 0.00
7:35 pm 19:35 Clear 69 20.6 55 13 62 62 Calm 29.54 1000 10 16 0.00 0.00
7:55 pm 19:55 Clear 68 19.8 55 13 65 65 Calm 29.56 1001 10 16 0.00 0.00
8:15 pm 20:15 Clear 65 18.6 55 12.8 69 69 Calm 29.58 1002 10 16 0.00 0.00
8:35 pm 20:35 Clear 65 18.2 55 13 72 72 W 3 6 29.59 1002 10 16 0.00 0.00
8:55 pm 20:55 Clear 66 18.8 55 12.7 68 68 W 6 9 29.59 1002 10 16 0.00 0.00
9:15 pm 21:15 Clear 67 19.4 55 12.6 65 65 W 8 13 29.59 1002 10 16 0.00 0.00
9:35 pm 21:35 Clear 67 19.4 55 12.5 65 65 W 6 9 29.59 1002 10 16 0.00 0.00
9:55 pm 21:55 Clear 65 18.5 54 12.4 68 68 W 5 7 29.61 1003 10 16 0.00 0.00
10:15 pm 22:15 Partly Cloudy 67 19.6 53 11.6 60 60 W 8 13 29.60 1002 10 16 0.00 0.00
10:35 pm 22:35 Clear 67 19.2 49 9.5 54 54 WNW 8 13 29.60 1003 10 16 0.00 0.00
10:55 pm 22:55 Clear 65 18.4 46 8 51 51 WNW 7 11 29.62 1003 10 16 0.00 0.00
11:15 pm 23:15 Clear 64 17.5 45 7.2 51 51 WNW 5 7 29.64 1004 10 16 0.00 0.00
11:35 pm 23:35 Clear 63 17 44 6.5 50 50 WNW 7 11 29.64 1004 10 16 0.00 0.00
11:55 pm 23:55 Clear 62 16.5 42 5.5 48 48 NW 7 11 29.66 1004 10 16 0.00 0.00

Powered by AerisWeather